Volver al catálogo

STARLINK-4566

ActivoComunicacionesSSO
NORAD 53693·PAYLOAD·🇺🇸 United States

Lanzado Aug 31, 2022 desde Vandenberg Space Force Base

Loading…

Próximos Pases (próximas 24 horas)

TLE

ActualizadoSource: CelesTrak SupGP

Época: Sep 15, 2026, 02:21 UTC

1 53693C 22105AX  26258.09840278  .00064273  00000+0  19946-2 0  2587
2 53693  97.2844 134.9064 0002080  94.2648   1.6529 15.33414816    12

Sigue STARLINK-4566 en tiempo real con AllMySat

Download on the App Store